Location: Doschendorf
(50.0069°N, 11.0602°E)
Time: 12:00:39
(UTC+00:00)

NOAA 12 - Pass Details

Date: 25 February 2020
Orbit: 795 x 815 km, 98.5° (Epoch: 05 April)

Event Time Altitude Azimuth Distance (km) Brightness Sun altitude
Rises 05:16:56 0° 20° (NNE) 3,355 7.5 -9.0°
Reaches altitude 10° 05:19:29 10° 29° (NNE) 2,418 6.9 -8.6°
Maximum altitude 05:24:23 36° 96° (E) 1,276 6.0 -7.8°
Drops below altitude 10° 05:29:15 10° 162° (SSE) 2,396 6.9 -7.0°
Sets 05:31:46 0° 171° (S) 3,320 7.5 -6.6°
